Kaneohe MCBH, HI

1:46 AM HST on July 21, 2017 (GMT -1000)
Kaneohe Bay Marine Corps Air Facility

Weather History for PHNG - October, 2012

Change the Weather History Date:

Saturday, October 13, 2012

  Actual Average Record
Temperature  
Mean Temperature 78 °F -  
Max Temperature 81 °F 81 °F 86 °F (2013)
Min Temperature 75 °F 72 °F 72 °F (1997)
Cooling Degree Days 13    
Growing Degree Days 28 (Base 50)    
Moisture  
Dew Point 71 °F    
Average Humidity 80    
Maximum Humidity 90    
Minimum Humidity 71    
Precipitation  
Precipitation 0.00 in - - ()
Sea Level Pressure  
Sea Level Pressure 30.13 in    
Wind  
Wind Speed 8 mph (ENE)    
Max Wind Speed 10 mph    
Max Gust Speed 17 mph    
Visibility 9 miles    
Events Rain    
Averages and records for this station are not official NWS values.
T = Trace of Precipitation, MM = Missing Value Source: NWS Daily Summary

Daily Weather History Graph

Daily Weather History Graph

Search for Another Location

Airport or City:

Trip Planner

Search our weather history database for the weather conditions in past years. The results will help you decide how hot, cold, wet, or windy it might be!

Date:

Astronomy

Oct. 13, 2012 Rise Set
Actual Time 6:26 AM HST 6:07 PM HST
Civil Twilight 6:03 AM HST 6:29 PM HST
Nautical Twilight 5:38 AM HST 6:55 PM HST
Astronomical Twilight 5:12 AM HST 7:21 PM HST
Moon 4:39 AM HST (10/13) 4:52 PM HST (10/13)
Length of Visible Light 12h 25m
Length of Day
11h 41m
Waning Crescent, 4% of the Moon is Illuminated
Oct 13
Waning Crescent
Oct 15
New
Oct 21
First Quarter
Oct 29
Full
Nov 6
Last Quarter

Hourly Weather History & Observations

Time (HST) Temp. Heat Index Dew Point Humidity Pressure Visibility Wind Dir Wind Speed Gust Speed Precip Events Conditions
12:57 AM 77.0 °F - 69.1 °F 76% 30.12 in 10.0 mi ENE 6.9 mph - N/A   Overcast
1:57 AM 77.0 °F - 69.1 °F 76% 30.11 in 10.0 mi East 8.1 mph 16.1 mph N/A   Mostly Cloudy
2:05 AM 77.0 °F - 68.0 °F 74% 30.12 in 6.2 mi East 6.9 mph - N/A   Scattered Clouds
2:57 AM 77.0 °F - 68.0 °F 74% 30.10 in 10.0 mi East 6.9 mph - N/A   Clear
3:44 AM - - - N/A% 30.10 in 6.2 mi East 8.1 mph - N/A   Mostly Cloudy
3:57 AM 75.2 °F - 69.1 °F 81% 30.09 in 10.0 mi East 6.9 mph - N/A   Scattered Clouds
4:57 AM 75.2 °F - 69.1 °F 81% 30.10 in 10.0 mi East 9.2 mph - N/A   Mostly Cloudy
5:05 AM 75.2 °F - 69.8 °F 83% 30.11 in 10.0 mi East 9.2 mph - N/A   Mostly Cloudy
5:57 AM 75.2 °F - 69.1 °F 81% 30.11 in 10.0 mi ENE 6.9 mph - N/A   Mostly Cloudy
6:04 AM 75.2 °F - 69.8 °F 83% 30.12 in 6.2 mi East 4.6 mph - N/A   Scattered Clouds
6:57 AM 75.2 °F - 69.1 °F 81% 30.12 in 10.0 mi ENE 6.9 mph - N/A   Mostly Cloudy
7:57 AM 75.2 °F - 70.0 °F 84% 30.14 in 10.0 mi ENE 8.1 mph - N/A   Overcast
8:15 AM 75.2 °F - 69.8 °F 83% 30.16 in 6.2 mi ENE 9.2 mph - N/A   Overcast
8:57 AM 75.2 °F - 70.0 °F 84% 30.15 in 10.0 mi NE 10.4 mph 16.1 mph 0.00 in   Overcast
9:57 AM 79.5 °F - 72.9 °F 80% 30.16 in 10.0 mi ENE 10.4 mph - N/A   Mostly Cloudy
10:57 AM 79.9 °F - 73.9 °F 82% 30.15 in 10.0 mi NE 8.1 mph - N/A   Scattered Clouds
11:57 AM 81.0 °F 84.9 °F 71.1 °F 72% 30.13 in 10.0 mi NE 8.1 mph - 0.00 in Rain Light Rain
12:16 PM 80.6 °F 84.6 °F 71.6 °F 74% 30.13 in 6.2 mi NE 10.4 mph - 0.00 in Rain Light Rain
12:57 PM 81.1 °F 85.6 °F 72.3 °F 74% 30.11 in 10.0 mi ENE 6.9 mph - 0.00 in   Overcast
1:57 PM 79.5 °F - 72.3 °F 79% 30.10 in 10.0 mi NE 6.9 mph - N/A   Mostly Cloudy
2:57 PM 81.1 °F 86.6 °F 74.1 °F 79% 30.09 in 10.0 mi NE 8.1 mph - N/A   Scattered Clouds
3:57 PM 81.0 °F 85.4 °F 72.5 °F 75% 30.09 in 10.0 mi ENE 8.1 mph - N/A   Mostly Cloudy
4:57 PM 81.1 °F 85.0 °F 71.1 °F 71% 30.09 in 10.0 mi NE 10.4 mph - N/A   Mostly Cloudy
5:57 PM 78.8 °F - 72.0 °F 79% 30.10 in 10.0 mi ENE 6.9 mph - N/A   Overcast
6:57 PM 78.8 °F - 73.0 °F 82% 30.12 in 10.0 mi ENE 9.2 mph - 0.00 in   Scattered Clouds
7:57 PM 77.0 °F - 69.8 °F 78% 30.14 in 10.0 mi ENE 6.9 mph - N/A   Scattered Clouds
8:57 PM 77.0 °F - 71.6 °F 83% 30.15 in 10.0 mi ENE 9.2 mph 16.1 mph N/A   Scattered Clouds
9:09 PM - - - N/A% 30.17 in 6.2 mi ENE 8.1 mph - N/A   Mostly Cloudy
9:23 PM 77.0 °F - 71.6 °F 83% 30.17 in 6.2 mi ENE 9.2 mph 17.3 mph N/A   Scattered Clouds
9:57 PM 77.0 °F - 72.0 °F 84% 30.16 in 10.0 mi ENE 6.9 mph - N/A   Scattered Clouds
10:57 PM 75.2 °F - 71.6 °F 89% 30.16 in 10.0 mi ENE 8.1 mph - N/A   Mostly Cloudy
11:57 PM 75.2 °F - 72.0 °F 90% 30.15 in 10.0 mi ENE 8.1 mph - 0.00 in Rain Light Rain